EDT,Max TemperatureF,Mean TemperatureF,Min TemperatureF,Max Dew PointF,MeanDew PointF,Min DewpointF,Max Humidity, Mean Humidity, Min Humidity, Max Sea Level PressureIn, Mean Sea Level PressureIn, Min Sea Level PressureIn, Max VisibilityMiles, Mean VisibilityMiles, Min VisibilityMiles, Max Wind SpeedMPH, Mean Wind SpeedMPH, Max Gust SpeedMPH,PrecipitationIn, CloudCover, Events, WindDirDegrees
2011-10-1,55,48,42,52,44,40,96,88,82,29.94,29.84,29.72,10,10,6,15,6,24,0.07,7,Rain,343
2011-10-2,63,53,44,54,49,40,100,88,70,29.90,29.88,29.82,10,7,1,9,4,,0.59,8,Rain,78
2011-10-3,64,56,51,54,50,45,100,83,56,30.08,29.99,29.90,10,10,10,10,4,16,0.02,6,Rain,92
2011-10-4,62,56,50,54,52,48,100,91,72,30.12,30.09,30.06,10,9,2,12,3,16,0.02,7,Rain,291
2011-10-5,64,51,39,52,46,30,100,84,31,30.35,30.16,30.10,10,7,0,15,3,23,0.00,5,Fog,323
2011-10-6,62,47,32,40,33,30,96,70,30,30.44,30.38,30.32,10,10,10,13,2,16,0.00,0,,291
2011-10-7,66,50,34,46,37,31,93,73,29,30.49,30.45,30.41,10,10,9,7,2,,0.00,0,,136
2011-10-8,75,58,42,54,47,40,93,73,37,30.51,30.45,30.40,10,10,10,7,1,,0.00,0,,209
2011-10-9,77,62,46,57,52,45,97,78,50,30.46,30.40,30.33,10,9,2,8,2,,0.01,0,,270
2011-10-10,75,60,46,59,51,45,97,82,52,30.35,30.29,30.21,10,7,1,10,1,,0.00,1,,306
2011-10-11,75,62,50,59,53,45,100,75,50,30.25,30.19,30.13,10,8,2,6,2,,0.00,0,,106
2011-10-12,63,58,53,51,48,44,89,70,58,30.15,30.09,29.98,10,10,8,10,7,17,0.06,4,Rain,115
2011-10-13,66,58,51,58,54,49,100,88,78,29.96,29.81,29.65,10,8,2,15,9,23,0.33,8,Rain,117
2011-10-14,68,61,53,63,57,50,100,90,81,29.63,29.43,29.30,10,9,4,17,11,31,0.25,7,Rain,168
2011-10-15,55,50,46,48,44,40,90,76,59,29.64,29.48,29.38,10,10,6,20,10,31,0.23,8,Rain,236
2011-10-16,59,52,48,49,43,36,94,75,51,29.78,29.68,29.60,10,9,2,22,10,29,0.33,7,Rain,240
2011-10-17,55,47,39,46,41,38,100,76,53,29.72,29.66,29.60,10,8,2,16,7,31,0.03,5,Rain,272
2011-10-18,61,51,41,44,41,39,96,68,46,29.90,29.82,29.70,10,10,10,12,4,22,0.00,5,,328
2011-10-19,63,56,48,52,47,42,89,73,52,29.90,29.72,29.47,10,10,10,21,8,36,0.04,7,Rain-Thunderstorm,99
2011-10-20,64,58,52,57,50,37,94,77,52,29.58,29.37,29.24,10,9,2,20,14,32,0.18,8,Rain,156
2011-10-21,54,50,46,45,42,39,93,76,61,29.99,29.84,29.59,10,10,5,12,7,21,0.10,8,Rain,240
2011-10-22,48,46,44,45,44,39,100,91,71,30.12,30.05,29.99,10,8,2,10,5,,0.25,8,Rain,257
2011-10-23,55,47,37,43,39,35,93,78,49,30.14,30.11,30.08,10,10,10,7,2,,0.00,5,,204
2011-10-24,62,48,37,50,43,35,97,84,60,30.10,29.98,29.85,10,8,2,23,7,39,0.21,5,Rain,141
2011-10-25,54,43,35,41,38,34,100,84,52,30.08,30.02,29.97,10,7,0,18,3,29,0.00,5,Fog,291
2011-10-26,46,44,42,45,43,39,100,95,87,30.05,29.85,29.78,10,5,2,9,4,,0.28,8,Rain,86
2011-10-27,41,37,30,38,35,29,96,92,87,30.06,29.84,29.78,10,8,4,12,4,,0.38,8,Rain,348
2011-10-28,45,34,24,31,28,23,96,80,51,30.28,30.21,30.09,10,10,10,6,1,,0.00,1,,297
2011-10-29,41,36,30,32,29,27,92,80,57,30.27,30.16,30.06,10,10,10,7,2,,0.00,5,,114
2011-10-30,48,38,28,29,26,23,92,66,39,30.33,30.20,30.07,10,10,10,14,6,20,0.00,1,,302
2011-10-31,51,39,27,33,29,25,96,69,46,30.37,30.32,30.27,10,10,10,13,6,,0.00,1,,120